www.pogodaiklimat.ru

Погода и климат >> Архив погоды >> Индонезия >> Панкалпинанг


ПОГОДА в Панкалпинанге

  • Прогноз погоды в Панкалпинанге
  • Монитор погоды в Панкалпинанге

АРХИВ ПОГОДЫ в Панкалпинанге

Время (UTC), дата Ветер
(напр.,м/с)
 
Видим.   Явления Облачность Т
(С)
Тd
(С)
f
(%)
Тe
(С)
Тes
(С)
Комфортность P
(гПа)
Po
(гПа)
Тmin
(С)
Tmax
(С)
R
(мм)
R24
(мм)
S
(см)
03 20.06 ЮВ 6 10 км 8/5 480 м
[Cu med, cong Ac trans Cs]
+30.5 +25.2 73 +44 +46 опасность
перегрева
1010.7 1006.6
06 20.06 В 6 10 км 6/4 480 м
[Cu med, cong Ac As Cs]
+30.8 +24.9 71 +44 +47 опасность
перегрева
1008.8 1004.7
09 20.06 ЮВ 5 10 км 5/3 480 м
[Cu hum As trans Cs]
+30.5 +25.3 74 +44 +46 опасность
перегрева
1007.2 1003.1
12 20.06 ЮВ 4 7000 м 6/4 480 м
[Cu hum As trans Cs]
+28.5 +23.8 76 +39 +39 очень
душно
1008.0 1003.9 +31.3
15 20.06 Ю 1 7000 м 6/4 480 м
[Cu hum As trans Cs]
+27.4 +23.9 81 +38 +38 очень
душно
1010.4 1006.3
18 20.06 Ю 2 7000 м 6/4 480 м
[Cu hum As trans Cs]
+26.6 +24.2 87 +37 +37 очень
душно
1009.9 1005.8
21 20.06 Ю 2 7000 м 6/4 480 м
[Cu hum As trans Cs]
+25.8 +23.8 89 +35 +35 очень
душно
1008.6 1004.5
00 21.06 Ю 2 10 км 9/4 480 м
[Cu med, cong Ac trans Ci sp]
+26.8 +24.6 88 +38 +38 очень
душно
1009.8 1005.2 +25.2
03 21.06 ЮВ 6 10 км осадки на расстоянии 9/4 480 м
[Cu med, cong Ac trans Ci sp]
+30.6 +24.8 71 +43 +45 опасность
перегрева
1010.0 1005.6
06 21.06 В 4 10 км 8/4 480 м
[Cu med, cong Ac trans Ci sp]
+30.6 +24.8 71 +43 +48 опасность
перегрева
1008.8 1004.3
09 21.06 Ю 3 10 км 10/5 480 м
[Cu med, cong Ac As Cs]
+27.4 +24.3 83 +38 +39 очень
душно
1007.5 1003.0
12 21.06 ЮЗ 1 7000 м {дождь} 10/5 480 м
[Cu med, cong Ac As Cs]
+26.4 +23.7 85 +36 +36 очень
душно
1008.7 1004.2 +31.0 0.0
15 21.06 ЮВ 3 7000 м 10/4 480 м
[Cu hum Ac As Cs]
+26.0 +23.3 85 +35 +35 очень
душно
1009.2 1005.1
18 21.06 ЮВ 3 6000 м 10/4 480 м
[Cu hum Ac As Cs]
+25.9 +23.7 88 +35 +35 очень
душно
1008.6 1004.5
21 21.06 Ю 1 6000 м 10/4 480 м
[Cu hum Ac As Cs]
+25.7 +23.5 88 +35 +35 очень
душно
1008.1 1004.0
00 22.06 ЮВ 3 6000 м 10/3 480 м
[Cu hum Ac As Cs]
+26.2 +23.6 86 +36 +36 очень
душно
1008.8 1004.7 +25.5 0.0
03 22.06 ЮВ 5 8000 м 9/3 480 м
[Cu hum As trans Cs]
+30.6 +24.4 70 +43 +46 опасность
перегрева
1009.1 1005.0
06 22.06 ЮВ 4 8000 м 10/3 480 м
[Cu med, cong As op Cs]
+31.8 +24.2 64 +44 +48 опасность
перегрева
1007.6 1003.5
09 22.06 В 4 8000 м в посл. час дождь 10/3 480 м
[Cu med, cong As trans Cs]
+30.2 +25.1 74 +44 +45 опасность
перегрева
1006.5 1002.4 0.0
12 22.06 Ю 1 5000 м мгла {дождь} 9/3 480 м
[Cu hum As trans Cs]
+28.1 +24.9 83 +40 +40 очень
душно
1008.5 1004.4 +32.2 0.0
15 22.06 Ю 2 7000 м 8/4 480 м
[Cu med, cong As trans Cs]
+26.9 +23.3 81 +36 +36 очень
душно
1010.1 1005.5
18 22.06 Ю 1 7000 м 9/5 420 м
[Cb cap Ac As Cs]
+27.1 +23.3 80 +37 +37 очень
душно
1009.5 1005.0
21 22.06 Ю 2 7000 м {дождь} 10/5 420 м
[Cb cap Ac As Cs]
+24.0 +22.6 92 +31 +31 очень
душно
1009.2 1004.5 0.3
00 23.06 ЮЗ 1 7000 м {дождь} 9/4 480 м
[Cu med, cong Ac As Cs]
+23.8 +23.0 95 +32 +32 очень
душно
1010.6 1006.5 +23.4 0.4
03 23.06 ЮВ 3 10 км 8/4 480 м
[Cu hum Ac trans Ci fib]
+29.4 +24.0 73 +41 +45 опасность
перегрева
1010.5 1006.4
06 23.06 В 4 10 км 9/5 480 м
[Cu med, cong Ac trans Ci fib]
+30.8 +24.0 67 +42 +46 опасность
перегрева
1008.7 1004.6
09 23.06 ЮВ 4 10 км 9/5 480 м
[Cu med, cong Ac trans Ci fib]
+30.2 +24.4 71 +42 +43 опасность
перегрева
1007.5 1003.4
12 23.06 Ю 4 7000 м 9/5 480 м
[Cu hum Ac trans Ci fib]
+28.6 +24.8 80 +41 +41 опасность
перегрева
1009.4 1005.3 +31.2
15 23.06 ЮВ 3 7000 м 9/4 480 м
[Cu hum Ac As Cs]
+26.0 +23.9 88 +36 +36 очень
душно
1010.2 1006.1
18 23.06 ЮВ 4 6000 м 9/4 480 м
[Cu hum Ac As Cs]
+25.6 +23.9 90 +35 +35 очень
душно
1009.6 1005.5
21 23.06 Ю 3 5000 м 9/4 480 м
[Cu hum Ac As Cs]
+25.4 +23.6 90 +35 +35 очень
душно
1009.5 1005.4
00 24.06 Ю 2 6000 м 10/3 480 м
[Cu hum Ac trans Cs]
+26.2 +23.9 87 +36 +36 очень
душно
1010.6 1006.5 +23.8
03 24.06 ЮВ 8 8000 м 10/3 480 м
[Cu hum As trans Cs]
+30.6 +24.7 71 +43 +44 опасность
перегрева
1011.1 1007.0
06 24.06 В 6 10 км 10/3 480 м
[Cu hum As trans Cs]
+30.5 +25.2 73 +44 +46 опасность
перегрева
1009.5 1005.4
09 24.06 ЮВ 5 10 км 10/4 480 м
[Cu hum As trans Cs]
+30.0 +25.0 75 +43 +44 опасность
перегрева
1008.6 1004.5
12 24.06 ЮВ 3 7000 м {дождь} 10/5 480 м
[Cu hum As trans Cs]
+27.9 +23.8 78 +38 +38 очень
душно
1009.9 1005.8 +31.6 0.0
15 24.06 Ю 3 7000 м 10/5 480 м
[Cu hum As trans Cs]
+26.6 +23.5 83 +36 +36 очень
душно
1012.0 1007.9
18 24.06 ЮВ 1 7000 м 9/4 480 м
[Cu hum As trans Cs]
+25.6 +23.6 89 +35 +35 очень
душно
1010.6 1006.5
21 24.06 Ю 1 7000 м 9/4 480 м
[Cu hum As trans Cs]
+25.0 +23.8 93 +34 +34 очень
душно
1010.4 1006.3
00 25.06 ЮВ 3 9000 м 9/4 480 м
[Cu med, cong Ac trans Cs]
+26.0 +23.4 86 +35 +36 очень
душно
1011.8 1007.2 +24.8 0.0
03 25.06 В 7 10 км 9/4 480 м
[Cu med, cong Ac trans Cs]
+29.6 +24.0 72 +41 +43 опасность
перегрева
1012.3 1007.8
06 25.06 ЮВ 7 10 км 10/4 480 м
[Cu med, cong Ac As Cs]
+31.3 +25.1 70 +45 +47 опасность
перегрева
1010.4 1006.0
09 25.06 ЮВ 6 10 км 10/4 480 м
[Cu med, cong Ac As Cs]
+31.3 +23.0 61 +41 +42 опасность
перегрева
1009.1 1004.6
12 25.06 ЮВ 2 7000 м 9/4 480 м
[Cu med, cong Ac As Cs]
+28.0 +23.3 76 +38 +38 очень
душно
1010.3 1005.7 +32.1
15 25.06 ЮВ 4 7000 м 9/4 480 м
[Cu hum Ac trans Cs]
+26.1 +23.0 83 +35 +35 очень
душно
1011.4 1007.3
18 25.06 Ю 2 6000 м 9/4 480 м
[Cu hum Ac trans Cs]
+25.7 +23.2 86 +34 +34 очень
душно
1010.7 1006.6
21 25.06 Ю 2 5000 м 9/4 480 м
[Cu hum Ac trans Cs]
+25.4 +23.2 88 +34 +34 очень
душно
1011.1 1007.0
00 26.06 Ю 2 7000 м 5/3 480 м
[Cu med, cong Cs]
+26.4 +23.8 86 +36 +37 очень
душно
1011.3 1007.2 +23.6
03 26.06 В 4 10 км 8/4 480 м
[Cu med, cong As trans Cs]
+30.6 +24.4 70 +43 +47 опасность
перегрева
1012.1 1008.0
06 26.06 В 4 10 км 5/3 480 м
[Cu med, cong Cs]
+31.3 +23.7 64 +42 +50 опасность
перегрева
1010.1 1006.0
09 26.06 В 4 10 км 5/5 480 м
[Cu hum Cs]
+31.1 +24.8 69 +44 +45 опасность
перегрева
1008.3 1004.2
12 26.06 Ю 2 6000 м в посл. час дождь 10/4 480 м
[Cu hum As trans Cs]
+27.6 +24.6 84 +39 +39 очень
душно
1009.8 1005.7 +32.2 0.0
15 26.06 Ю 3 10 км 10/4 480 м
[Sc Ac As Cs]
+26.5 +24.3 88 +37 +37 очень
душно
1011.9 1007.3
18 26.06 Ю 2 6000 м 8/3 480 м
[Sc Ac As Cs]
+26.2 +24.2 89 +36 +36 очень
душно
1011.2 1006.6
21 26.06 ЮВ 2 6000 м 8/3 480 м
[Sc Ac As Cs]
+25.2 +23.9 93 +35 +35 очень
душно
1010.3 1005.7
00 27.06 ЮВ 3 8000 м 8/4 480 м
[Cu hum As trans Cs]
+26.4 +23.5 84 +36 +36 очень
душно
1011.3 1007.2 +25.0 0.0

 

Местоположение метеостанции Панкалпинанг (Индонезия): широта -2.17 долгота 106.13 высота над уровнем моря 33 м.

В архиве по умолчанию представлена погода в Панкалпинанге за последнюю неделю. Архивные данные за месяц целиком и за предыдущие месяцы, начиная с января 2011 года, Вы можете получить, выбрав интересующий диапазон дат из раскрывающегося списка и нажав кнопку "Ввод!".


*Определитесь, кто Вы:
робот инопланетянин человек

Внимание! Время в таблицах - всемирное. Для получения местного времени необходимо прибавить поправку, которая равна 7 ч.

Смотрите также архив погоды в соседних городах и на ближайших метеорологических станциях:

Погода в Палембанге (Индонезия) (178 км)
Погода в Танджунгпандане (Индонезия) (191 км)
Погода в Аэропорту Дабо (Индонезия) (255 км)
Погода в Джамби (Индонезия) (282 км)
Погода в Танджунгкаранге (Индонезия) (343 км)
Погода в Танджунгпинанге (Индонезия) (387 км)
Погода в Кетапанге (Индонезия) (427 км)
Погода в Понтианаке (Индонезия) (427 км)
Погода в Аэропорту Ханга Надима (Индонезия) (429 км)
Погода в Серанге (Индонезия) (439 км)

Пояснения к столбцам:

Ветер - указаны скорость ветра в м/с - средняя за 10 мин, порывы в срок и между сроками (в фигурных скобках) и направление, откуда дует ветер: С - северный, СВ - северо-восточный, В - восточный, ЮВ - юго-восточный, Ю - южный, ЮЗ - юго-западный, З - западный, СЗ - северо-западный.
Видимость - горизонтальная дальность видимости в метрах или километрах. При видимости от 1 до 10 км при отсутствии осадков обычно наблюдается дымка, при ухудшении видимости до 1 км и менее - туман. В сухую погоду видимость может ухудшаться дымом, пылью или мглою.
Явления - указаны атмосферные явления, наблюдавшиеся в срок или в последний час перед сроком; фигурными скобками обозначены явления, наблюдавшиеся между сроками (за 1-3 часа до срока); квадратными скобками обозначены град или гололедные отложения с указанием их диаметра в мм.
Облачность - указаны через наклонную черту общая и нижняя облачность в баллах и высота нижней границы облаков в метрах; квадратными скобками обозначены формы облаков: Ci - перистые, Cs - перисто-слоистые, Cc - перисто-кучевые, Ac - высококучевые, As - высокослоистые, Sc - слоисто-кучевые, Ns - слоисто-дождевые, Cu - кучевые, Cb - кучево-дождевые. Подробнее классификацию облаков см. в Атласе облаков (PDF).
T - Температура воздуха - температура, измеренная на высоте 2 м над землей.
Td - Температура точки росы - температура, при понижении до которой содержащийся в воздухе водяной пар достигнет насыщения.
f - Относительная влажность воздуха - влажноcть воздуха, измеренная на высоте 2 м над землей.
Te - Эффективная температура - температура, которую ощущает одетый по сезону человек в тени. Характеристика душности погоды. При расчете учитывается влияние влажности воздуха и скорости ветра на теплоощущения человека.
Tes - Эффективная температура на солнце - температура, которую ощущает человек, с поправкой на солнечный нагрев. Характеристика знойности погоды. Зависит от высоты солнца над горизонтом, облачности и скорости ветра. Ночью, в пасмурную погоду, а также при ветре 12 м/с и более поправка равна нулю.
P - Атмосферное давление - приведенное к уровню моря атмосферное давление.
Po - Атмосферное давление - измеренное на уровне метеостанции атмосферное давление.
Tmin - Минимальная температура - минимум температуры воздуха на высоте 2 м над землей.
Tmax - Максимальная температура - максимум температуры воздуха на высоте 2 м над землей.
R - Количество осадков - Количество выпавших осадков за период времени, мм. При наведении курсора мыши на число - период времени, за который выпало указанное количество осадков.
R24 - Количество осадков - Количество выпавших осадков за 24 часа, мм.
S - Снежный покров - Высота снежного покрова, см. При наведении курсора мыши на число - состояние снежного покрова и степень покрытия местности в баллах.